Weather History for Randolph AFB, TX

Change the Weather History Date:

Saturday, July 13, 2013

  Actual Average Record
Temperature  
Mean Temperature 86 °F -  
Max Temperature 100 °F 92 °F 100 °F (1996)
Min Temperature 71 °F 72 °F 69 °F (1999)
Cooling Degree Days 20    
Growing Degree Days 36 (Base 50)    
Moisture  
Dew Point 65 °F    
Average Humidity 53    
Maximum Humidity 90    
Minimum Humidity 23    
Precipitation  
Precipitation 0.00 in - - ()
Sea Level Pressure  
Sea Level Pressure 29.92 in    
Wind  
Wind Speed 5 mph (SSW)    
Max Wind Speed 10 mph    
Max Gust Speed -    
Visibility 10 miles    
Events      
Averages and records for this station are not official NWS values.
T = Trace of Precipitation, MM = Missing Value Source: NWS Daily Summary

Daily Weather History Graph

Daily Weather History Graph

Search for Another Location

Airport:

Trip Planner

Search our weather history database for the weather conditions in past years. The results will help you decide how hot, cold, wet, or windy it might be!

Date:

Astronomy

Jul. 13, 2013 Rise Set
Actual Time 6:42 AM CDT 8:35 PM CDT
Civil Twilight 6:15 AM CDT 9:01 PM CDT
Nautical Twilight 5:43 AM CDT 9:34 PM CDT
Astronomical Twilight 5:08 AM CDT 10:08 PM CDT
Moon 11:32 AM CDT (7/13) 11:46 PM CDT (7/13)
Length of Visible Light 14h 46m
Length of Day
13h 52m
Waxing Crescent, 26% of the Moon is Illuminated
Jul 13
Waxing Crescent
Jul 15
First Quarter
Jul 22
Full
Jul 29
Last Quarter
Aug 6
New

Hourly Weather History & Observations

Time (CDT) Temp. Heat Index Dew Point Humidity Pressure Visibility Wind Dir Wind Speed Gust Speed Precip Events Conditions
12:58 AM 80.8 °F 83.5 °F 68.2 °F 65% 29.92 in 10.0 mi SSW 5.8 mph - N/A   Clear
1:58 AM 79.5 °F - 67.8 °F 67% 29.94 in 10.0 mi SSW 4.6 mph - N/A   Clear
2:58 AM 77.7 °F - 68.4 °F 73% 29.94 in 10.0 mi SW 6.9 mph - N/A   Clear
3:58 AM 77.0 °F - 68.7 °F 75% 29.94 in 10.0 mi SW 5.8 mph - N/A   Clear
4:58 AM 76.5 °F - 68.5 °F 76% 29.92 in 10.0 mi WSW 4.6 mph - N/A   Clear
5:58 AM 74.5 °F - 68.5 °F 82% 29.94 in 10.0 mi SSW 2.3 mph - N/A   Clear
6:58 AM 71.4 °F - 68.4 °F 90% 29.95 in 10.0 mi NE 2.3 mph - N/A   Clear
7:58 AM 75.9 °F - 69.4 °F 80% 29.96 in 10.0 mi Calm Calm - N/A   Clear
8:58 AM 81.0 °F 84.6 °F 70.3 °F 70% 29.96 in 10.0 mi West 4.6 mph - N/A   Clear
9:58 AM 84.4 °F 89.0 °F 70.3 °F 63% 29.97 in 10.0 mi Calm Calm - N/A   Clear
10:58 AM 88.3 °F 92.0 °F 68.2 °F 51% 29.97 in 10.0 mi Variable 2.3 mph - N/A   Clear
11:58 AM 90.5 °F 93.8 °F 67.3 °F 46% 29.96 in 10.0 mi Variable 1.2 mph - N/A   Clear
12:58 PM 93.6 °F 95.5 °F 64.4 °F 38% 29.94 in 10.0 mi SW 5.8 mph - N/A   Clear
1:58 PM 95.2 °F 96.3 °F 63.0 °F 34% 29.92 in 10.0 mi Variable 3.5 mph - N/A   Scattered Clouds
2:58 PM 97.5 °F 98.7 °F 62.4 °F 31% 29.90 in 10.0 mi SSE 9.2 mph - N/A   Clear
3:58 PM 98.6 °F 99.4 °F 60.8 °F 29% 29.88 in 10.0 mi South 10.4 mph - N/A   Partly Cloudy
4:58 PM 100.8 °F 99.8 °F 56.1 °F 23% 29.86 in 10.0 mi SSE 6.9 mph - N/A   Clear
5:58 PM 100.0 °F 98.8 °F 55.6 °F 23% 29.85 in 10.0 mi SE 6.9 mph - N/A   Clear
6:58 PM 98.8 °F 97.4 °F 55.9 °F 24% 29.83 in 10.0 mi SSW 8.1 mph - N/A   Clear
9:59 PM 89.2 °F 87.9 °F 57.6 °F 34% 29.85 in 10.0 mi South 5.8 mph - N/A   Clear
10:59 PM 86.5 °F 86.8 °F 61.7 °F 43% 29.86 in 10.0 mi SSW 8.1 mph - N/A   Clear